Regional Weather Roundup
Issued by NWS Upton, NY

Home | Current Version | Previous Version | Text Only | Print | Product List | Glossary On
Versions: 1 2 3 4 5 6 7 8 9 10 11 12 13 14 15 16 17 18 19 20 21 22 23 24 25 26 27
000
ASUS41 KOKX 211609
RWROKX

REGIONAL WEATHER ROUNDUP
NATIONAL WEATHER SERVICE NEW YORK NY
1200 PM EDT THU SEP 21 2017

NOTE: "FAIR" INDICATES FEW OR NO CLOUDS BELOW 12,000 FEET WITH NO
SIGNIFICANT WEATHER AND/OR OBSTRUCTIONS TO VISIBILITY.

NYZ071-072-176-178-NJZ106-104-211700-
NEW YORK CITY METRO AREA

CITY           SKY/WX    TMP DP  RH WIND       PRES   REMARKS
Central Park   CLOUDY    79  64  60 MISG      30.04F
Bronx Bot Gard   N/A     79  63  57 SE2       30.02S
LaGuardia APRT CLOUDY    79  64  60 N13       30.00F
Kennedy INTL   CLOUDY    79  63  57 N13       30.01S
Breezy Point     N/A     77 N/A N/A N12G18      N/A
Newark/Liberty CLOUDY    80  63  55 N16       30.01F
Teterboro      CLOUDY    80  63  55 N13G22    30.00F
$$

NYZ177-179-078>081-211700-
LONG ISLAND NEW YORK

CITY           SKY/WX    TMP DP  RH WIND       PRES   REMARKS
Jones Beach      N/A     75 N/A N/A N13         N/A
Matinecock PT    N/A     75 N/A N/A N14         N/A
Farmingdale    CLOUDY    75  62  64 N18G24    30.00S
MacArthur/ISP  CLOUDY    74  64  71 N10G24    29.98S
Shirley        CLOUDY    74  65  73 N12G22    29.98F
Mt Sinai Harb    N/A    N/A N/A N/A N14         N/A
Westhampton    CLOUDY    72  62  71 N13       29.97F
East Hampton   FAIR      70  62  74 N15G21    29.95S
Montauk          N/A     71  63  75 N13G24    29.95S
$$

NYZ052-065-067-211700-
HUDSON VALLEY

CITY           SKY/WX    TMP DP  RH WIND       PRES   REMARKS
White Plains   MOSUNNY   77  63  61 N12       30.02S
Larchmont Harb   N/A     75 N/A N/A N14G21      N/A
Croton On Huds   N/A     81 N/A N/A N5G13       N/A
Newburgh       MOSUNNY   77  66  69 N12G18    30.06F
Montgomery     CLOUDY    76  64  66 NE9       30.05F
Poughkeepsie   CLOUDY    78  63  59 N12       30.03F
Albany         CLOUDY    73  63  70 NE6       30.08F
$$

NJZ001-105-106-008-010-013-015-019>022-104-211700-
NEW JERSEY

CITY           SKY/WX    TMP DP  RH WIND       PRES   REMARKS
Newark/Liberty CLOUDY    80  63  55 N16       30.01F
Teterboro      CLOUDY    80  63  55 N13G22    30.00F
Caldwell       CLOUDY    78  67  68 VRB6      30.04S
Somerville     NOT AVBL
Linden         NOT AVBL
Perth Amboy      N/A     75 N/A N/A N12G18      N/A
Sussex         CLOUDY    77  65  66 E9        30.06S
Andover          N/A     78  64  61 NE8       30.06F
Trenton        MOSUNNY   82  64  54 N9        30.03S
Millville      SUNNY     85  67  54 N10       30.01F
Atlantic City  SUNNY     83  65  54 N14       29.99F
Wrightstown    SUNNY     81  65  58 N16G22    29.99F
Toms River     MOSUNNY   80  66  62 N9G18     30.01F
Belmar         PTSUNNY   77  64  64 N14G21    30.02F
$$

PAZ047>061-062-071-211700-
EASTERN PENNSYLVANIA

CITY           SKY/WX    TMP DP  RH WIND       PRES   REMARKS
Philadelphia   MOSUNNY   84  63  49 N8        30.03S
Allentown      SUNNY     83  64  52 E6        30.05F
Scranton       SUNNY     75  64  68 CALM      30.10F
$$

CTZ002-004>006-009-010-012-RIZ004-006-007-MAZ004-011-015-211700-
SOUTHERN NEW ENGLAND
 IN CT

CITY           SKY/WX    TMP DP  RH WIND       PRES   REMARKS
Bradley INTL   CLOUDY    76  63  64 N13       30.02S
Hartford       CLOUDY    75  63  66 N13       30.01S
Danbury        CLOUDY    77  62  59 N15       30.04F
Wtrbury/Oxford CLOUDY    73  62  68 NE13G22   30.04S
Norwalk Harbor   N/A     73 N/A N/A N14G21      N/A
Bridgeport     CLOUDY    76  62  62 NE16G24   30.00S
Meriden        CLOUDY    74  61  63 N13G21    30.00S
New Haven      CLOUDY    74  61  63 N22G29    29.99S
Chester        FAIR      73  63  68 N13G20    29.99S
Groton         CLOUDY    72  61  68 N20G26    29.95R
Wilimantic     CLOUDY    73  61  65 N18G25    30.00S

 IN RI

CITY           SKY/WX    TMP DP  RH WIND       PRES   REMARKS
Providence     PTSUNNY   72  60  66 N20G37    29.98S
Block Island   CLOUDY    69  60  73 N20G35    29.93S
Westerly       CLOUDY    72  61  68 N13G23    29.95S
 IN MA

CITY           SKY/WX    TMP DP  RH WIND       PRES   REMARKS
Boston         CLOUDY    68  52  56 N29G39    30.02S
Worcester      CLOUDY    67  57  70 NE13G23   30.05S
Westfield      CLOUDY    76  62  62 N14G25    30.03S
Provincetown   CLOUDY    62  55  77 N26G36    29.93S
Nantucket      LGT RAIN  62  62 100 N35G49    29.79S FOG
$$

ANZ330-335-338-340-345-350-353-355-211700-
COASTAL MARINE OBSERVATIONS


STATION/POSITION TIME  SKY/WX   TEMP    WIND        PRES    VSBY  WAVE
                                AIR SEA DIR/SP/G                  HT/PER
                 (UTC)          (F)     (DEG/KT/KT) (MB)    (MI)  (FT/S)
NY HARB ENTRANCE 1450            72 70  360/ 12/ 14 1015.1          4/ 9
20 S FIRE ISLAND 1450            70 67  350/ 14/ 16 1014.9          5/ 9
GREAT SOUTH BAY  1530            72 71   20/ 12/ 19   N/A
23 SSW MONTAUK P 1450            69 65              1012.9          6/ 9
15 E BARNEGAT LI 1530               69                N/A           5/ 9
HUDSON CANYON    1550            70 70  340/ 21/ 27 1012.6          8/10
KINGS POINT      1530            75 71   40/ 10/ 12 1017.0
EXECUTION ROCKS  1545            76      10/ 12/ 16   N/A
WESTERN LI SOUND NOT AVBL
CENTRAL LI SOUND 1530            72      10/ 12/ 16   N/A           2
EASTERN LI SOUND NOT AVBL
ROBBINS REEF     1530            76     330/ 10/ 14 1016.9
$$


>>>>>>>>>>>>>>>>>>>>>>>>>>>> KEY <<<<<<<<<<<<<<<<<<<<<<<<<<<
>                                                          <
>     SKY/WX - Sky Condition/Present Weather               <
>     TMP    - Temperature in Fahrenheit                   <
>     DP     - Dew Point in Fahrenheit                     <
>     RH     - Relative Humidity in Percent                <
>     WIND   - Direction (from) and Speed in MPH           <
>     PRES   - Mean Sea Level Pressure (inches of Hg)      <
>     WCI    - Wind Chill Index                            <
>     VSB    - VISIBILITY IN MILES                         <
>     HX     - HEAT INDEX                                  <
>     TC     - TEMPERATURE IN CELSIUS                      <
>     VRB    - VARIABLE WIND DIRECTION                     <
>                                                          <
>>>>>>>>>>>>>>>>>>>>>>>>>>>> KEY <<<<<<<<<<<<<<<<<<<<<<<<<<<




USA.gov is the U.S. government's official web portal to all federal, state and local government web resources and services.